TimeEDT,TemperatureF,Dew PointF,Humidity,Sea Level PressureIn,VisibilityMPH,Wind Direction,Wind SpeedMPH,Gust SpeedMPH,PrecipitationIn,Events,Conditions,WindDirDegrees,DateUTC
12:53 AM,39.0,36.0,89,29.77,10.0,NW,10.4,20.7,0.00,Rain,Light Rain,320,2013-05-26 04:53:00
1:53 AM,39.0,36.0,89,29.75,10.0,NW,8.1,-,0.00,,Overcast,310,2013-05-26 05:53:00
2:08 AM,39.2,35.6,87,29.70,10.0,NW,6.9,19.6,N/A,,Overcast,310,2013-05-26 06:08:00
2:53 AM,39.9,35.1,83,29.74,10.0,WNW,11.5,17.3,0.00,Rain,Light Rain,300,2013-05-26 06:53:00
3:53 AM,39.9,36.0,86,29.74,10.0,NW,12.7,20.7,0.01,Rain,Light Rain,310,2013-05-26 07:53:00
4:53 AM,39.9,36.0,86,29.75,10.0,NW,16.1,23.0,0.00,,Overcast,310,2013-05-26 08:53:00
5:53 AM,39.9,36.0,86,29.78,10.0,NW,10.4,21.9,0.00,Rain,Light Rain,320,2013-05-26 09:53:00
6:53 AM,39.9,36.0,86,29.79,8.0,NW,12.7,21.9,0.02,Rain,Light Rain,320,2013-05-26 10:53:00
7:53 AM,43.0,37.9,82,29.81,10.0,NNW,9.2,24.2,0.01,,Overcast,330,2013-05-26 11:53:00
8:53 AM,45.0,37.0,74,29.83,10.0,NW,13.8,21.9,N/A,,Overcast,320,2013-05-26 12:53:00
9:18 AM,48.2,37.4,66,29.79,10.0,NW,15.0,25.3,N/A,,Overcast,310,2013-05-26 13:18:00
9:53 AM,50.0,36.0,59,29.84,10.0,NNW,25.3,32.2,N/A,,Overcast,330,2013-05-26 13:53:00
10:53 AM,54.0,36.0,51,29.85,10.0,NW,18.4,29.9,N/A,,Scattered Clouds,320,2013-05-26 14:53:00
11:53 AM,54.0,35.1,49,29.86,10.0,NW,24.2,35.7,N/A,,Mostly Cloudy,310,2013-05-26 15:53:00
12:53 PM,54.0,35.1,49,29.88,10.0,NW,16.1,27.6,N/A,,Overcast,310,2013-05-26 16:53:00
1:53 PM,55.9,34.0,44,29.89,10.0,WNW,21.9,31.1,N/A,,Overcast,300,2013-05-26 17:53:00
2:53 PM,55.9,33.1,42,29.91,10.0,NNW,20.7,29.9,N/A,,Overcast,330,2013-05-26 18:53:00
3:53 PM,55.0,34.0,45,29.94,10.0,NW,24.2,31.1,N/A,,Overcast,320,2013-05-26 19:53:00
4:53 PM,55.0,35.1,47,29.96,10.0,NW,18.4,26.5,N/A,,Mostly Cloudy,310,2013-05-26 20:53:00
5:53 PM,55.0,35.1,47,29.99,10.0,NW,16.1,27.6,N/A,,Overcast,310,2013-05-26 21:53:00
6:53 PM,54.0,35.1,49,30.02,10.0,WNW,16.1,32.2,N/A,,Overcast,300,2013-05-26 22:53:00
7:53 PM,52.0,36.0,54,30.06,10.0,NW,11.5,27.6,N/A,,Mostly Cloudy,310,2013-05-26 23:53:00
8:53 PM,51.1,36.0,56,30.07,10.0,NW,9.2,18.4,N/A,,Partly Cloudy,320,2013-05-27 00:53:00
9:53 PM,50.0,36.0,59,30.08,10.0,NW,6.9,-,N/A,,Clear,320,2013-05-27 01:53:00
10:53 PM,48.9,36.0,61,30.09,10.0,WNW,9.2,-,N/A,,Clear,300,2013-05-27 02:53:00
11:53 PM,46.9,36.0,66,30.11,10.0,WSW,3.5,-,N/A,,Clear,250,2013-05-27 03:53:00